Regional Weather Roundup
Issued by NWS

Home | Current Version | Previous Version | Graphics & Text | Print | Product List | Glossary On
Versions: 1 2 3 4 5 6 7 8 9 10 11 12 13 14 15 16 17 18 19 20 21 22 23 24 25 26 27 28 29 30 31 32 33 34 35 36 37 38 39 40 41 42 43 44 45 46 47 48 49 50
964
ASUS45 KTFX 250610
RWRMT
MONTANA REGIONAL WEATHER ROUNDUP
NATIONAL WEATHER SERVICE GREAT FALLS MT
1200 AM MDT TUE JUL 25 2017

NOTE: "FAIR" INDICATES FEW OR NO CLOUDS BELOW 12000 FEET WITH NO
SIGNIFICANT WEATHER AND/OR OBSTRUCTIONS TO VISIBILITY.

MTZ001>007-043-250700-
WEST OF THE DIVIDE

CITY           SKY/WX    TMP DP  RH WIND       PRES   REMARKS
KALISPELL      MOCLDY    62  34  35 NW5       29.95R
MISSOULA       MOCLDY    68  34  28 CALM      29.97R
BUTTE          CLEAR     64  37  36 N5        30.10S
MULLAN PASS    CLOUDY    59  27  29 NW5       30.14S
ANACONDA         N/A     64  34  32 W5        30.07R
DEER LODGE       N/A     70  28  21 N6        30.07R
EUREKA           N/A     64  32  29 MISG      29.95R
HAMILTON         N/A     64  45  48 CALM      29.99R
LIBBY            N/A     61  34  36 CALM      29.95R
$$

MTZ008-052>055-250700-
SOUTHWEST MONTANA

CITY           SKY/WX    TMP DP  RH WIND       PRES   REMARKS
BOZEMAN        CLOUDY    66  46  48 W8        30.03R
DILLON         PTCLDY    64  44  48 W5        30.06F
W YELLOWSTONE  CLOUDY    48  46  93 CALM      30.22R
ENNIS          CLEAR     63  41  45 E8        30.15R
THREE FORKS      N/A     68  50  52 CALM      30.00R
$$

MTZ009-010-012-014-046-048-049-054-250700-
EAST SLOPES AND CENTRAL MONTANA

CITY           SKY/WX    TMP DP  RH WIND       PRES   REMARKS
CUT BANK       PTCLDY    58  41  53 N13       30.11R
GREAT FALLS    CLOUDY    67  35  30 NE20      30.00R
HELENA         CLOUDY    77  26  15 W9        29.97R
CHOTEAU          N/A     59  37  44 N8        30.10R
$$

MTZ011-013-016-021-045-047-050-051-250700-
NORTH CENTRAL MONTANA

CITY           SKY/WX    TMP DP  RH WIND       PRES   REMARKS
HAVRE          CLOUDY    67  34  29 NE13      30.01R
LEWISTOWN      CLEAR     66  45  46 N5        29.99R
N BAR RANCH      N/A     61  50  67 W6        30.04R
CHINOOK          N/A     64  36  34 CALM      29.99R
$$

MTZ017>020-022>027-061-062-250700-
NORTHEAST MONTANA

CITY           SKY/WX    TMP DP  RH WIND       PRES   REMARKS
GLASGOW        PTCLDY    68  39  34 N16       29.91R
JORDAN           N/A     71  43  36 CALM      29.90R
SIDNEY         CLOUDY    71  46  40 N7        29.87R
WOLF POINT     CLOUDY    72  43  35 N13       29.90R
MALTA          CLEAR     68  36  30 N12G18    29.94R
PLENTYWOOD       N/A     64  43  45 CALM      29.92R
POPLAR           N/A     66  45  45 N8        29.91R
$$

MTZ028>42-056>058-250700-
SOUTHCENTRAL AND SOUTHEAST MONTANA

CITY           SKY/WX    TMP DP  RH WIND       PRES   REMARKS
BAKER          CLOUDY    74  49  41 E5        29.91R
LIVINGSTON     CLEAR     72  42  34 W10G17    30.00R
MILES CITY     MOCLDY    77  45  32 NE10      29.86F
BIG TIMBER     CLEAR     75  41  29 W20G26    30.00S
FORSYTH          N/A     75  46  35 E3        29.86R
LAUREL           N/A     74  45  35 N3        29.91S
$$

REGIONAL REPORTS...DAKOTAS

CITY           SKY/WX    TMP DP  RH WIND       PRES   REMARKS
WILLISTON      CLOUDY    69  48  47 N6        29.88R
MINOT          CLOUDY    70  57  63 NW8       29.83R
DICKINSON      CLEAR     71  57  61 NE9       29.87R
BEACH          DRIZZLE   68  50  52 N3        29.93R
CROSBY           N/A     57  46  67 CALM      29.89R
TIOGA            N/A     59  50  72 CALM      29.90R
WATFORD CITY     N/A     64  48  55 CALM      29.86S
BISMARCK       CLEAR     71  67  87 S5        29.83S
GRAND FORKS    PTCLDY    68  65  90 S13       29.84F
FARGO          PTCLDY    71  64  78 SE17G26   29.88R
BUFFALO SD       N/A     76  56  49 NE8       29.83S
RAPID CITY     CLEAR     76  53  44 SW3       29.89R
$$

REGIONAL REPORTS...WYOMING/IDAHO/WASHINGTON

CITY           SKY/WX    TMP DP  RH WIND       PRES   REMARKS
GILLETTE       PTCLDY    74  48  39 N6        29.97R
SHERIDAN       PTCLDY    67  51  56 SW5       29.98R
BUFFALO WY     CLEAR     74  44  34 NW9       30.05S
CODY           PTCLDY    72  41  32 CALM      30.04R
YELLOWSTONE LA   N/A     46  43  89 CALM      30.31F
IDAHO FALLS    MOCLDY    64  55  72 N3        30.02S
BOISE          CLOUDY    80  47  31 VRB3      29.88R
SPOKANE        PTCLDY    73  36  25 CALM      29.96R
$$

REGIONAL REPORTS...ALBERTA

CITY           SKY/WX    TMP DP  RH WIND       PRES   REMARKS
EDMONTON       CLEAR     52  50  93 W8        29.96R
CALGARY        PTCLDY    55  43  62 W5        30.09R
LETHBRIDGE     CLEAR     54  41  62 N6        30.09R
MEDICINE HAT   CLEAR     59  43  55 NW8       30.04R
CARDSTON         N/A     52  43  71 SW6         N/A
ONEFOUR          N/A     54  39  58 N9          N/A
$$

REGIONAL REPORTS...SASKATCHEWAN

CITY           SKY/WX    TMP DP  RH WIND       PRES   REMARKS
SWIFT CURRENT  CLEAR     55  43  62 W18G28    29.94R
REGINA         CLEAR     55  41  58 W10       29.86R
SASKATOON      CLOUDY    57  54  88 W21G28    29.72S
CYPRESS HILLS    N/A     50  39  66 NW6         N/A
VAL MARIE        N/A     57  36  44 N13         N/A
ROCKGLEN         N/A     61  34  36 NW8         N/A
ASSINIBOIA       N/A     55  54  94 W13         N/A
$$




USA.gov is the U.S. government's official web portal to all federal, state and local government web resources and services.